GPS BIIR-03 
1 25933U 99055A   03041.62336381 -.00000044  00000-0  00000+0 0  9033
2 25933  52.3639 306.6904 0015658 333.4403  26.5260  2.00565704 24540
GPS BIIR-04 
1 26360U 00025A   03041.22618410 -.00000075  00000-0  00000+0 0  9077
2 26360  55.2729  10.8968 0016344 104.9465 255.2414  2.00558457 20234
GPS BIIR-05 
1 26407U 00040A   03041.56494515  .00000062  00000-0  00000+0 0  8929
2 26407  54.9479 191.4258 0072006 219.8133 139.6318  2.00561868 18917
GPS BIIR-06 
1 26605U 00071A   03041.16046828 -.00000033  00000-0  00000+0 0  8276
2 26605  55.6585  70.9563 0018532 300.4042  59.4724  2.00565894 16509
GPS BIIR-07 
1 26690U 01004A   03041.04205923 -.00000073  00000-0  00000+0 0  7438
2 26690  55.2507  13.8887 0034490 186.7189 173.2393  2.00556140 14910
COSMOS 2362 
1 25594U 98077B   03040.77742747 -.00000060  00000-0  00000-0 0  2358
2 25594  65.1475   1.2439 0011539  45.9663 184.7469  2.13102318 31998
COSMOS 2363 
1 25595U 98077C   03041.86950116 -.00000058  00000-0  00000+0 0  1884
2 25595  65.1600   1.2032 0001517  96.5556 298.0118  2.13102633 32021
COSMOS 2374 
1 26564U 00063A   03040.53739235  .00000097  00000-0  00000-0 0  7237
2 26564  64.6013 241.8255 0005153  44.1160 350.2347  2.13102161 18080
COSMOS 2375 
1 26565U 00063B   03040.85389406  .00000100  00000-0  00000-0 0  7240
2 26565  64.6037 241.8069 0002074  22.4395 298.9819  2.13102285 18087
COSMOS 2376 
1 26566U 00063C   03040.31274182  .00000095  00000-0  10000-3 0  7265
2 26566  64.5853 241.7745 0039452 226.2056 304.5127  2.13099554 18070
COSMOS 2382 
1 26987U 01053A   03040.56504744 -.00000060  00000-0  00000-0 0  3691
2 26987  64.8463   1.7960 0004865 183.2137  22.9022  2.13102887  9262
COSMOS 2381 
1 26988U 01053B   03040.36551324 -.00000060  00000-0  00000-0 0  3674
2 26988  64.8509   1.7973 0023280 217.1505 285.5810  2.13102847  9275
COSMOS 2380 
1 26989U 01053C   03040.61293613 -.00000060  00000-0  00000-0 0  3723
2 26989  64.8422   1.8103 0007064  73.8245 123.7300  2.13102738  9272
COSMOS 2394 
1 27617U 02060A   03041.41414189  .00000106  00000-0  00000+0 0   493
2 27617  64.7811 241.5974 0001098 127.4381 354.8992  2.13102338  1035
COSMOS 2395 
1 27618U 02060B   03041.86013286  .00000109  00000-0  00000+0 0   488
2 27618  64.7843 241.5610 0011231 151.3258 268.1257  2.13101688  1024
COSMOS 2396 
1 27619U 02060C   03041.70590718  .00000108  00000-0  00000+0 0   481
2 27619  64.7935 241.5912 0006117 312.2611  78.7764  2.13101937  1025
1967-048A 
1 02807U 67048A   03040.76362603  .00000074  00000-0  10000-3 0  2406
2 02807  89.5667 298.4617 0022049  92.7209 267.6465 13.49466918757773
1967-092A 
1 02965U 67092A   03040.76356002  .00000077  00000-0  10000-3 0  6201
2 02965  89.2358 295.0992 0047181 315.3278  44.4077 13.52172273743648
1968-012A 
1 03133U 68012A   03040.81243495  .00000048  00000-0  59766-4 0  1250
2 03133  90.0097 286.8120 0075271 190.2173 169.7447 13.50224833719533
NNSS 19 
1 04507U 70067A   03040.86741677  .00000161  00000-0  21990-3 0  3120
2 04507  89.9651 331.8307 0172651 310.2594  48.3562 13.49842893596758
NNSS O-20 
1 06909U 73081A   03040.97221860  .00000175  00000-0  17346-3 0  6854
2 06909  89.8052  36.7237 0157266 200.7739 158.6977 13.69340133661617
TRANSAT 
1 10457U 77106A   03040.94068815  .00000072  00000-0  10000-3 0  8505
2 10457  89.7048 324.8926 0027153 106.7930 253.6202 13.48087240243470
NOVA I 
1 12458U 81044A   03040.68254494  .00000050  00000-0  10000-3 0  6071
2 12458  90.1687  82.9057 0016292  56.9847 303.2888 13.22543110 49235
NOVA 3 
1 15362U 84110A   03040.56909299  .00000050  00000-0  10000-3 0   391
2 15362  89.8895  64.8114 0030028 272.8024  86.9673 13.22325269884530
OSCAR 30 
1 15935U 85066A   03040.94728949  .00000083  00000-0  13538-3 0  3322
2 15935  89.9877  18.8152 0168735 199.5509 159.9110 13.35048005851229
OSCAR 24 
1 15936U 85066B   03040.96403445  .00000134  00000-0  23004-3 0  4075
2 15936  89.9845  17.4849 0169254 201.3040 158.0993 13.34963000853379
POLAR BEAR 
1 17070U 86088A   03040.97427071  .00000112  00000-0  10652-3 0  2432
2 17070  89.6107 206.5346 0041529  53.1056 307.3902 13.74109453814111
OSCAR 27 
1 18361U 87080A   03040.92570624  .00000047  00000-0  66429-4 0  9110
2 18361  90.2608 169.8371 0107681 333.9515  25.6237 13.43853883755102
OSCAR 29 
1 18362U 87080B   03040.86727251  .00000041  00000-0  56662-4 0  1613
2 18362  90.2598 169.8744 0109455 340.6665  19.0345 13.43505483754956
OSCAR 23 
1 19070U 88033A   03040.78256690  .00000023  00000-0  33522-4 0  8701
2 19070  90.3403 122.3130 0189236 323.6404  35.1999 13.26936134716223
OSCAR 32 
1 19071U 88033B   03040.92906314  .00000055  00000-0  10000-3 0  8017
2 19071  90.3396 122.4397 0187713 317.7304  40.9492 13.27159592716354
NOVA 11 
1 19223U 88052A   03040.60961877  .00000037  00000-0  69746-4 0  1393
2 19223  90.0427  80.8366 0029491 316.0042  43.8751 13.22264926707091
OSCAR 25 
1 19419U 88074A   03040.97057503  .00000066  00000-0  10000-3 0  1824
2 19419  89.8165  61.9526 0094792 263.2793  95.7560 13.41592972707846
OSCAR 31 
1 19420U 88074B   03040.97107303  .00000066  00000-0  10000-3 0  8456
2 19420  89.8169  61.8838 0092830 258.7206 100.3497 13.41685233707920
COSMOS 1383 
1 13301U 82066A   03040.85863452  .00000057  00000-0  49263-4 0  1024
2 13301  82.9344 152.7708 0028187  27.8685 332.3970 13.68366291 29476
COSMOS 1447 
1 13916U 83021A   03040.92300091  .00000096  00000-0  85255-4 0  1913
2 13916  82.9446 194.2590 0036519 221.2322 138.6073 13.74703955997370
COSMOS 1574 
1 15055U 84062A   03041.12070943  .00000080  00000-0  68214-4 0  3795
2 15055  82.9550 254.2037 0029155  58.5058 301.8940 13.73980025934473
COSMOS 1791 
1 17066U 86086A   03040.69832548  .00000089  00000-0  76520-4 0  3007
2 17066  82.9472 102.1449 0039914 302.8288  56.9025 13.75390885815620
NADEZHDA 2 
1 20508U 90017A   03042.07721049  .00000071  00000-0  58369-4 0  6340
2 20508  82.9499 250.2931 0045944  80.7738 279.8605 13.73880857649487
COSMOS 2074 
1 20577U 90036A   03040.87277512  .00000083  00000-0  72132-4 0  6835
2 20577  82.9442 298.3999 0025599 218.5327 141.4001 13.74305693642407
COSMOS 2123 
1 21089U 91007A   03040.95030724  .00000063  00000-0  51241-4 0  4906
2 21089  82.9227 187.7680 0028269 312.8255  47.0524 13.74403192602602
NADEZHDA 3 
1 21152U 91019A   03041.78103435  .00000040  00000-0  26136-4 0  3350
2 21152  82.9249 145.8243 0043395  63.4765 297.0838 13.73894176597309
COSMOS 2142 
1 21230U 91029A   03040.83692674  .00000031  00000-0  16562-4 0  5681
2 21230  82.9515  43.7839 0037907 165.1383 195.0896 13.72809555592275
COSMOS 2154 
1 21666U 91059A   03040.87733293  .00000061  00000-0  49767-4 0  6524
2 21666  82.9067 320.0669 0025207 148.8741 211.3914 13.73032910574635
COSMOS 2173 
1 21796U 91081A   03040.94892913  .00000061  00000-0  46979-4 0  3390
2 21796  82.9550   0.9384 0051103  37.0801 323.3863 13.75133205562381
COSMOS 2180 
1 21875U 92008A   03041.17076976  .00000039  00000-0  26014-4 0  2928
2 21875  82.9211  58.4860 0036699 301.1619  58.5939 13.73440874550261
COSMOS 2181 
1 21902U 92012A   03040.70936311  .00000071  00000-0  61627-4 0  2868
2 21902  82.9428 116.2335 0029282   6.4118 353.7404 13.72142464546918
COSMOS 2184 
1 21937U 92020A   03041.18975378  .00000035  00000-0  20731-4 0  3125
2 21937  82.9327 300.9001 0034972  98.7423 261.7698 13.72860433542272
COSMOS 2218 
1 22207U 92073A   03040.87203346  .00000056  00000-0  44457-4 0  1041
2 22207  82.9225 328.5557 0031492 294.3776  65.4092 13.72605537515090
COSMOS 2230 
1 22307U 93001A   03042.20260981  .00000090  00000-0  80555-4 0   968
2 22307  82.9395 109.9062 0025804 126.2821 234.0720 13.73147407496891
COSMOS 2233 
1 22487U 93008A   03040.97346591  .00000031  00000-0  16124-4 0  1257
2 22487  82.9423  25.6814 0037980 172.8379 187.3328 13.75441106497760
COSMOS 2239 
1 22590U 93020A   03040.95101334  .00000064  00000-0  51717-4 0  2555
2 22590  82.9308 351.5998 0023081 334.9766  25.0269 13.75086026494810
COSMOS 2266 
1 22888U 93070A   03041.55831127  .00000015  00000-0  00000+0 0  9318
2 22888  82.9475 269.2777 0046894 213.4710 146.3483 13.74580657462517
COSMOS 2279 
1 23092U 94024A   03040.57564293  .00000034  00000-0  20256-4 0  8684
2 23092  82.9450  58.1457 0034996 330.4066  29.5108 13.75342176441361
NADEZHDA 4 
1 23179U 94041A   03040.92637109  .00000079  00000-0  65645-4 0  7853
2 23179  82.9423 236.1149 0035614 176.0973 184.0470 13.76048809430759
TSIKADA 
1 23463U 95002A   03040.94016887  .00000055  00000-0  43192-4 0  7377
2 23463  82.9252 199.3642 0040449  58.6111 301.8995 13.72175096402951
COSMOS 2310 
1 23526U 95012A   03040.79189504  .00000015  00000-0  00000-0 0  7483
2 23526  82.9470 309.5357 0021044 193.5846 166.4742 13.71475963394922
COSMOS 2315 
1 23603U 95032A   03041.22464637  .00000107  00000-0  10000-3 0  6916
2 23603  82.9016  99.1478 0031311 132.7392 227.6399 13.72536423380898
COSMOS 2327 
1 23773U 96004A   03040.69914821  .00000079  00000-0  68355-4 0  6576
2 23773  82.9829 279.6617 0046774 289.8425  69.7690 13.74097123354394
COSMOS 2334 
1 24304U 96052A   03040.73066456  .00000245  00000-0  24809-3 0  7219
2 24304  82.9304 269.3645 0028360 226.2068 133.6740 13.73219437322170
COSMOS 2336 
1 24677U 96071A   03041.06686565  .00000015  00000-0  00000+0 0  5585
2 24677  82.9423   7.3923 0023869 161.9390 198.2617 13.71339746307342
COSMOS 2341 
1 24772U 97017A   03040.78436782  .00000092  00000-0  85778-4 0  5309
2 24772  82.9220 301.9682 0026838 134.2617 226.0739 13.71311673291090
